SENTINEL-3B (43437 NORAD) Tracking and Keplerian Element Data

This shows tracking and keplerian element data for the satellite.

Feedback or suggestion? Click here.




ElementValue
Catalog43437
NameSENTINEL-3B
Epoch Orbit11464
Epoch Day189.80976923
Epoch Year2020
RAAN256.235
Inclination98.6272
Eccentricity0.0001568
Argument of Perigee106.8028
Mean Anonmoly253.3324
Mean Motion14.26736515
Decay Rate-3E-08
L11 43437U 18039A 20189.80976923 -.00000003 00000-0 16891-4 0 9999
L22 43437 98.6272 256.2350 0001568 106.8028 253.3324 14.26736515114643

Live tracking and technical data element details for SENTINEL-3B (NORAD 43437). SENTINEL-3B can be tracked NOW for your location showing map with azimuth and elevation plus other details from your city location.

Track the satellite on the map from your city or location and see movement details for azimuth, elevation, latitude, longitude, range, height, and movement on the map or in text.







IsCatalogInMostPopularTable: catalog: 43437, numindb: 513
Update: records affected: 1



GetName: 43437 SENTINEL-3B

Hit Count: updated at: Wed, 08 Jul 2020 22:48:17 GMT